Flag for U.S.A. Weather past 2 weeks in Tyler, Texas, U.S.A.

Now
69 °F

Clear.


Feels Like: 69 °F
Forecast: 66 / 80 °F
Wind: 12 mph from South

Location: Tyler Pounds Field

Current Time: Apr 1, 2015 at 10:22:06 PM

Latest Report: Apr 1, 2015 at 9:53 PM


Visibility: 10 mi

Pressure: 29.89 "Hg

Humidity: 79%

Dew point: 62 °F

Location of TylerLocation

Historic Weather in Tyler — Graph

°F

Tyler temperature yesterday

Maximum temperature yesterday: 81 °F (at 5:53 PM)
Minimum temperature yesterday: 62 °F (at 4:53 AM)
Average temperature yesterday: 70 °F

Past Weeks' High & Low Weather Summary

 TemperatureHumidityPressure
High84 °F (Mar 25, 2:53 PM)97% (Mar 19, 3:53 AM)30.18 "Hg (Mar 19, 3:53 AM)
Low39 °F (Mar 27, 4:53 AM)26% (Mar 28, 5:53 PM)29.78 "Hg (Mar 26, 12:53 AM)
Average64 °F73%30.02 "Hg
* Reported Mar 17 8:53 PM — Apr 1 8:53 PM, Tyler, Weather by CustomWeather, © 2015

Note: Actual official high and low records may vary slightly from our data, if they occured in-between our weather recording intervals... More about our weather records

Advertising

Tyler weather history for previous 24 hours

 ConditionsComfort  
Time TempWeatherWind HumidityBarometerVisibility
8:53 PM
Wed, Apr 1
71 °FLight rain. Passing clouds.14 mph73%29.88 "Hg10 mi
7:53 PM76 °FScattered clouds.15 mph58%29.85 "Hg10 mi
6:53 PM79 °FPartly sunny.13 mph54%29.84 "Hg10 mi
5:53 PM81 °FPassing clouds.18 mph49%29.83 "Hg10 mi
4:53 PM80 °FSunny.16 mph54%29.83 "Hg10 mi
3:53 PM78 °FSunny.18 mph58%29.87 "Hg10 mi
2:53 PM78 °FSunny.15 mph58%29.89 "Hg10 mi
1:53 PM77 °FBroken clouds.14 mph62%29.92 "Hg10 mi
12:53 PM75 °FPartly sunny.21 mph69%29.94 "Hg10 mi
11:53 AM74 °FPassing clouds.14 mph71%29.95 "Hg10 mi
10:53 AM74 °FPartly sunny.14 mph71%29.96 "Hg10 mi
9:53 AM69 °FOvercast.14 mph84%29.95 "Hg10 mi
8:53 AM68 °FMostly cloudy.13 mph87%29.95 "Hg8 mi
8:02 AM66 °FFog.12 mph90%29.95 "Hg2 mi
7:55 AM66 °FFog.12 mph90%29.94 "Hg6 mi
6:53 AM65 °FClear.10 mph91%29.92 "Hg7 mi
5:53 AM65 °FPassing clouds.8 mph91%29.92 "Hg9 mi
4:53 AM66 °FOvercast.3 mph87%29.94 "Hg10 mi
3:53 AM66 °FMostly cloudy.6 mph87%29.93 "Hg10 mi
2:53 AM65 °FMostly cloudy.8 mph85%29.94 "Hg10 mi
1:53 AM65 °FClear.9 mph78%29.93 "Hg10 mi
12:53 AM65 °FClear.7 mph78%29.93 "Hg10 mi
11:53 PM
Tue, Mar 31
65 °FClear.5 mph76%29.93 "Hg10 mi
10:53 PM67 °FClear.6 mph71%29.92 "Hg10 mi
Weather by CustomWeather, © 2015

See weather overviewHow to use our weather pages